| time (UTC) | temp C | wind direction | speed KPH | gust KPH | rain 1hr cm | rain 24hr cm | rain mn cm | humidity % | barometer mb |
| 20260507134002 | 10 | 294 | 11.3 | 17.7 | 0.00 | 3.61 | 0.41 | 88 | 1004.5 |
| 20260507133003 | 10 | 303 | 9.7 | 17.7 | 0.00 | 3.61 | 0.41 | 89 | 1004.7 |
| 20260507132023 | 10 | 287 | 12.9 | 19.3 | 0.00 | 3.61 | 0.41 | 90 | 1004.8 |
| 20260507131003 | 10 | 286 | 12.9 | 20.9 | 0.00 | 3.61 | 0.41 | 91 | 1004.9 |
| 20260507130003 | 10 | 293 | 12.9 | 17.7 | 0.00 | 3.61 | 0.41 | 92 | 1005.1 |
| 20260507125003 | 9 | 286 | 11.3 | 19.3 | 0.00 | 3.61 | 0.41 | 92 | 1005.2 |
| 20260507124003 | 8 | 291 | 11.3 | 20.9 | 0.00 | 3.61 | 0.41 | 93 | 1005.1 |
| 20260507123002 | 8 | 300 | 11.3 | 17.7 | 0.00 | 3.61 | 0.41 | 94 | 1004.9 |
| 20260507122024 | 8 | 301 | 11.3 | 17.7 | 0.00 | 3.61 | 0.41 | 95 | 1004.9 |
| 20260507121024 | 8 | 288 | 11.3 | 19.3 | 0.00 | 3.61 | 0.41 | 95 | 1004.9 |
| 20260507120003 | 8 | 302 | 14.5 | 19.3 | 0.00 | 3.61 | 0.41 | 95 | 1004.5 |
| 20260507115003 | 8 | 294 | 11.3 | 17.7 | 0.00 | 3.61 | 0.41 | 95 | 1004.7 |
| 20260507114003 | 7 | 297 | 9.7 | 14.5 | 0.00 | 3.61 | 0.41 | 95 | 1004.8 |
| 20260507113004 | 8 | 287 | 9.7 | 14.5 | 0.00 | 3.61 | 0.41 | 95 | 1005.1 |
| 20260507112003 | 7 | 312 | 4.8 | 12.9 | 0.00 | 3.61 | 0.41 | 96 | 1005.1 |
| 20260507111002 | 7 | 330 | 4.8 | 14.5 | 0.00 | 3.61 | 0.41 | 96 | 1005.2 |
| 20260507110003 | 7 | 312 | 9.7 | 17.7 | 0.00 | 3.61 | 0.41 | 96 | 1005.0 |
| 20260507105003 | 7 | 294 | 12.9 | 16.1 | 0.00 | 3.61 | 0.41 | 95 | 1005.4 |
| 20260507104003 | 7 | 280 | 9.7 | 14.5 | 0.00 | 3.61 | 0.41 | 96 | 1006.0 |
| 20260507103003 | 7 | 288 | 11.3 | 16.1 | 0.00 | 3.61 | 0.41 | 95 | 1005.1 |
| 20260507102024 | 7 | 299 | 8.0 | 14.5 | 0.00 | 3.61 | 0.41 | 96 | 1005.0 |
| 20260507101002 | 7 | 294 | 11.3 | 16.1 | 0.00 | 3.61 | 0.41 | 96 | 1005.1 |
| 20260507100003 | 7 | 312 | 9.7 | 17.7 | 0.00 | 3.61 | 0.41 | 96 | 1004.6 |
| 20260507095002 | 7 | 303 | 11.3 | 17.7 | 0.03 | 3.61 | 0.41 | 96 | 1004.7 |
| 20260507094003 | 8 | 309 | 11.3 | 17.7 | 0.00 | 3.58 | 0.38 | 96 | 1004.5 |
| 20260507093003 | 8 | 311 | 12.9 | 20.9 | 0.00 | 3.58 | 0.38 | 96 | 1004.3 |
| 20260507092003 | 8 | 309 | 9.7 | 19.3 | 0.00 | 3.58 | 0.38 | 96 | 1004.6 |
| 20260507091003 | 8 | 302 | 11.3 | 19.3 | 0.00 | 3.58 | 0.38 | 96 | 1004.5 |
| 20260507090002 | 8 | 291 | 4.8 | 12.9 | 0.00 | 3.58 | 0.38 | 96 | 1004.6 |
| 20260507085003 | 9 | 317 | 6.4 | 11.3 | 0.00 | 3.58 | 0.38 | 96 | 1004.3 |
| 20260507084002 | 9 | 319 | 4.8 | 9.7 | 0.00 | 3.58 | 0.38 | 96 | 1004.1 |
| 20260507083003 | 9 | 335 | 4.8 | 14.5 | 0.00 | 3.58 | 0.38 | 96 | 1004.1 |
| 20260507082003 | 9 | 318 | 4.8 | 12.9 | 0.00 | 3.58 | 0.38 | 96 | 1004.3 |
| 20260507081003 | 9 | 291 | 4.8 | 16.1 | 0.00 | 3.58 | 0.38 | 96 | 1004.3 |
| 20260507080003 | 9 | 294 | 8.0 | 14.5 | 0.03 | 3.58 | 0.38 | 96 | 1004.1 |
| 20260507075002 | 9 | 289 | 4.8 | 16.1 | 0.03 | 3.58 | 0.38 | 96 | 1004.3 |
| 20260507074003 | 9 | 303 | 8.0 | 14.5 | 0.03 | 3.58 | 0.38 | 96 | 1003.5 |
| 20260507073004 | 9 | 297 | 6.4 | 11.3 | 0.03 | 3.58 | 0.38 | 96 | 1003.7 |
| 20260507072003 | 9 | 311 | 4.8 | 9.7 | 0.03 | 3.58 | 0.38 | 96 | 1003.6 |
| 20260507071024 | 9 | 313 | 1.6 | 8.0 | 0.03 | 3.58 | 0.38 | 96 | 1003.4 |
| 20260507070007 | 9 | 309 | 6.4 | 11.3 | 0.00 | 3.56 | 0.36 | 96 | 1003.2 |
| 20260507065003 | 10 | 331 | 3.2 | 14.5 | 0.00 | 3.56 | 0.36 | 96 | 1003.3 |
| 20260507064024 | 9 | 315 | 6.4 | 14.5 | 0.00 | 3.56 | 0.36 | 96 | 1003.3 |
| 20260507063003 | 9 | 313 | 12.9 | 20.9 | 0.00 | 3.56 | 0.36 | 96 | 1003.4 |
| 20260507062004 | 9 | 304 | 11.3 | 19.3 | 0.00 | 3.56 | 0.36 | 96 | 1003.1 |
| 20260507061024 | 10 | 306 | 9.7 | 17.7 | 0.00 | 3.56 | 0.36 | 96 | 1002.9 |
| 20260507060002 | 10 | 290 | 8.0 | 19.3 | 0.10 | 3.56 | 0.36 | 96 | 1003.2 |
| 20260507055003 | 10 | 287 | 12.9 | 22.5 | 0.10 | 3.56 | 0.36 | 96 | 1003.0 |
| 20260507054003 | 10 | 308 | 11.3 | 16.1 | 0.10 | 3.56 | 0.36 | 96 | 1002.7 |
| 20260507053024 | 10 | 300 | 6.4 | 11.3 | 0.10 | 3.56 | 0.36 | 96 | 1003.0 |
| 20260507052025 | 10 | 307 | 4.8 | 11.3 | 0.10 | 3.56 | 0.36 | 97 | 1003.1 |
| 20260507051003 | 10 | 308 | 8.0 | 16.1 | 0.03 | 3.48 | 0.28 | 97 | 1003.1 |
| 20260507050003 | 9 | 298 | 11.3 | 25.7 | 0.00 | 3.45 | 0.25 | 96 | 1002.8 |
| 20260507045003 | 8 | 258 | 20.9 | 33.8 | 0.25 | 3.45 | 0.25 | 96 | 1003.1 |
| 20260507044003 | 8 | 256 | 19.3 | 27.4 | 0.18 | 3.38 | 0.18 | 96 | 1002.6 |
| 20260507043003 | 7 | 244 | 8.0 | 19.3 | 0.05 | 3.25 | 0.05 | 96 | 1002.5 |
| 20260507042045 | 7 | 246 | 8.0 | 20.9 | 0.00 | 3.20 | 0.00 | 96 | 1002.6 |
| 20260507041002 | 8 | 246 | 11.3 | 19.3 | 0.00 | 3.20 | 0.00 | 96 | 1002.5 |
| 20260507040003 | 8 | 251 | 11.3 | 16.1 | 0.00 | 3.20 | 3.20 | 96 | 1002.6 |
| 20260507035003 | 8 | 241 | 11.3 | 22.5 | 0.00 | 3.20 | 3.20 | 96 | 1002.6 |
| 20260507034003 | 8 | 232 | 12.9 | 30.6 | 0.00 | 3.20 | 3.20 | 96 | 1002.8 |
| 20260507033003 | 8 | 217 | 24.1 | 35.4 | 0.00 | 3.20 | 3.20 | 96 | 1002.6 |
| 20260507032003 | 8 | 216 | 25.7 | 37.0 | 0.00 | 3.20 | 3.20 | 96 | 1002.8 |
| 20260507031024 | 8 | 208 | 29.0 | 37.0 | 0.00 | 3.20 | 3.20 | 96 | 1002.7 |
| 20260507030003 | 8 | 208 | 30.6 | 38.6 | 0.00 | 3.20 | 3.20 | 96 | 1002.8 |
| 20260507025002 | 8 | 204 | 30.6 | 41.8 | 0.00 | 3.20 | 3.20 | 96 | 1002.9 |
| 20260507024004 | 8 | 202 | 33.8 | 41.8 | 0.00 | 3.20 | 3.20 | 96 | 1002.9 |
| 20260507023025 | 8 | 198 | 37.0 | 41.8 | 0.00 | 3.20 | 3.20 | 96 | 1003.1 |
| 20260507022003 | 8 | 198 | 35.4 | 43.5 | 0.00 | 3.20 | 3.20 | 96 | 1003.3 |
| 20260507021003 | 8 | 194 | 37.0 | 43.5 | 0.00 | 3.20 | 3.20 | 96 | 1003.3 |
| 20260507020002 | 8 | 195 | 38.6 | 45.1 | 0.10 | 3.20 | 3.20 | 95 | 1003.6 |
| 20260507015024 | 8 | 194 | 37.0 | 43.5 | 0.10 | 3.20 | 3.20 | 95 | 1003.5 |
| 20260507014003 | 8 | 192 | 38.6 | 46.7 | 0.08 | 3.17 | 3.17 | 96 | 1003.6 |
| 20260507013003 | 8 | 189 | 38.6 | 48.3 | 0.08 | 3.17 | 3.17 | 95 | 1003.7 |
| 20260507011024 | 8 | 187 | 38.6 | 46.7 | 0.03 | 3.12 | 3.12 | 95 | 1003.8 |
| 20260507010003 | 8 | 186 | 37.0 | 46.7 | 0.41 | 3.10 | 3.10 | 95 | 1003.9 |
| 20260507005003 | 8 | 185 | 41.8 | 51.5 | 0.36 | 3.05 | 3.05 | 95 | 1004.0 |
| 20260507004003 | 8 | 184 | 43.5 | 51.5 | 0.25 | 2.95 | 2.95 | 95 | 1004.1 |
| 20260507003045 | 9 | 182 | 40.2 | 56.3 | 0.15 | 2.84 | 2.84 | 95 | 1004.4 |
| 20260507002023 | 8 | 180 | 45.1 | 53.1 | 0.08 | 2.77 | 2.77 | 95 | 1004.2 |
| 20260507001003 | 8 | 181 | 40.2 | 49.9 | 0.05 | 2.74 | 2.74 | 95 | 1004.3 |
| 20260507000024 | 8 | 181 | 41.8 | 49.9 | 0.00 | 2.69 | 2.69 | 95 | 1004.4 |
| 20260506235003 | 8 | 179 | 41.8 | 51.5 | 0.91 | 2.67 | 2.67 | 95 | 1004.3 |
| 20260506234003 | 8 | 180 | 41.8 | 49.9 | 0.81 | 2.57 | 2.57 | 94 | 1004.5 |
| 20260506232003 | 9 | 186 | 40.2 | 53.1 | 0.46 | 2.21 | 2.21 | 95 | 1004.6 |
| 20260506231002 | 9 | 186 | 41.8 | 51.5 | 0.15 | 1.91 | 1.91 | 95 | 1004.7 |
| 20260506230003 | 9 | 183 | 41.8 | 51.5 | 1.30 | 1.75 | 1.75 | 94 | 1004.7 |
| 20260506225002 | 9 | 184 | 41.8 | 51.5 | 1.14 | 1.60 | 1.60 | 94 | 1004.9 |
| 20260506224003 | 9 | 186 | 41.8 | 57.9 | 0.97 | 1.42 | 1.42 | 94 | 1005.0 |
| 20260506223024 | 9 | 188 | 41.8 | 49.9 | 0.64 | 1.09 | 1.09 | 94 | 1005.0 |
| 20260506222003 | 9 | 189 | 40.2 | 49.9 | 0.38 | 0.84 | 0.84 | 93 | 1005.4 |
| 20260506221003 | 9 | 189 | 38.6 | 49.9 | 0.25 | 0.71 | 0.71 | 93 | 1005.0 |
| 20260506220003 | 9 | 190 | 43.5 | 54.7 | 0.30 | 0.46 | 0.46 | 93 | 1005.2 |
| 20260506215003 | 9 | 194 | 38.6 | 48.3 | 0.23 | 0.38 | 0.38 | 93 | 1005.6 |
| 20260506214003 | 9 | 192 | 40.2 | 46.7 | 0.15 | 0.30 | 0.30 | 93 | 1005.6 |
| 20260506213002 | 10 | 191 | 38.6 | 46.7 | 0.10 | 0.25 | 0.25 | 93 | 1005.5 |
| 20260506212003 | 10 | 190 | 40.2 | 49.9 | 0.08 | 0.23 | 0.23 | 93 | 1005.6 |
| 20260506211003 | 10 | 187 | 43.5 | 51.5 | 0.05 | 0.20 | 0.20 | 93 | 1005.5 |
| 20260506210002 | 10 | 191 | 38.6 | 49.9 | 0.15 | 0.15 | 0.15 | 93 | 1005.8 |
| 20260506205024 | 10 | 192 | 40.2 | 46.7 | 0.10 | 0.10 | 0.10 | 92 | 1005.8 |
| 20260506204002 | 10 | 196 | 40.2 | 48.3 | 0.08 | 0.08 | 0.08 | 92 | 1005.9 |
| 20260506203003 | 10 | 195 | 35.4 | 45.1 | 0.05 | 0.05 | 0.05 | 92 | 1005.7 |
| 20260506202002 | 10 | 198 | 40.2 | 49.9 | 0.05 | 0.05 | 0.05 | 92 | 1005.8 |
| 20260506201003 | 10 | 197 | 45.1 | 54.7 | 0.03 | 0.03 | 0.03 | 92 | 1005.9 |
| 20260506200003 | 10 | 200 | 46.7 | 56.3 | 0.00 | 0.00 | 0.00 | 92 | 1005.9 |
| 20260506195003 | 10 | 204 | 43.5 | 53.1 | 0.00 | 0.00 | 0.00 | 91 | 1006.1 |
| 20260506194003 | 10 | 200 | 45.1 | 53.1 | 0.00 | 0.00 | 0.00 | 91 | 1005.6 |
| 20260506193002 | 10 | 193 | 43.5 | 53.1 | 0.00 | 0.00 | 0.00 | 91 | 1005.5 |
| 20260506192003 | 10 | 186 | 43.5 | 51.5 | 0.00 | 0.00 | 0.00 | 91 | 1005.5 |
| 20260506191003 | 10 | 186 | 43.5 | 53.1 | 0.00 | 0.00 | 0.00 | 91 | 1005.6 |
| 20260506190003 | 10 | 187 | 41.8 | 53.1 | 0.00 | 0.00 | 0.00 | 91 | 1005.7 |
| 20260506185003 | 10 | 190 | 40.2 | 53.1 | 0.00 | 0.00 | 0.00 | 91 | 1006.0 |
| 20260506184002 | 10 | 190 | 41.8 | 49.9 | 0.00 | 0.00 | 0.00 | 91 | 1006.0 |
| 20260506183003 | 10 | 189 | 40.2 | 48.3 | 0.00 | 0.00 | 0.00 | 91 | 1006.3 |
| 20260506182024 | 10 | 189 | 38.6 | 43.5 | 0.00 | 0.00 | 0.00 | 91 | 1006.4 |
| 20260506181003 | 10 | 191 | 35.4 | 43.5 | 0.00 | 0.00 | 0.00 | 91 | 1006.5 |
| 20260506180004 | 10 | 191 | 35.4 | 41.8 | 0.00 | 0.00 | 0.00 | 91 | 1006.4 |
| 20260506175002 | 10 | 188 | 33.8 | 41.8 | 0.00 | 0.00 | 0.00 | 91 | 1006.6 |
| 20260506174003 | 10 | 192 | 33.8 | 38.6 | 0.00 | 0.00 | 0.00 | 91 | 1006.6 |
| 20260506172003 | 10 | 195 | 29.0 | 35.4 | 0.00 | 0.00 | 0.00 | 91 | 1006.9 |
| 20260506171002 | 10 | 199 | 27.4 | 37.0 | 0.00 | 0.00 | 0.00 | 90 | 1007.1 |
| 20260506170003 | 10 | 200 | 30.6 | 37.0 | 0.00 | 0.00 | 0.00 | 91 | 1007.2 |
| 20260506165003 | 10 | 205 | 29.0 | 33.8 | 0.00 | 0.00 | 0.00 | 91 | 1007.5 |
| 20260506164024 | 10 | 206 | 27.4 | 33.8 | 0.00 | 0.00 | 0.00 | 90 | 1007.6 |
| 20260506163003 | 10 | 203 | 25.7 | 33.8 | 0.00 | 0.00 | 0.00 | 91 | 1008.1 |
| 20260506162002 | 10 | 203 | 25.7 | 35.4 | 0.00 | 0.00 | 0.00 | 91 | 1008.2 |
| 20260506161003 | 10 | 199 | 27.4 | 32.2 | 0.00 | 0.00 | 0.00 | 91 | 1008.3 |
| 20260506160003 | 10 | 204 | 29.0 | 35.4 | 0.00 | 0.00 | 0.00 | 91 | 1008.4 |
| 20260506155003 | 10 | 207 | 29.0 | 38.6 | 0.00 | 0.00 | 0.00 | 90 | 1008.7 |
| 20260506154003 | 10 | 203 | 30.6 | 37.0 | 0.00 | 0.00 | 0.00 | 90 | 1008.5 |
| 20260506153002 | 10 | 211 | 24.1 | 30.6 | 0.00 | 0.00 | 0.00 | 90 | 1008.6 |
| 20260506152003 | 10 | 204 | 27.4 | 32.2 | 0.00 | 0.00 | 0.00 | 91 | 1008.6 |
| 20260506151003 | 10 | 200 | 29.0 | 33.8 | 0.00 | 0.00 | 0.00 | 91 | 1008.4 |
| 20260506150044 | 10 | 194 | 30.6 | 38.6 | 0.00 | 0.00 | 0.00 | 91 | 1008.2 |
| 20260506145003 | 10 | 196 | 29.0 | 35.4 | 0.00 | 0.00 | 0.00 | 91 | 1008.1 |
| 20260506144002 | 10 | 205 | 29.0 | 35.4 | 0.00 | 0.00 | 0.00 | 91 | 1008.4 |
| 20260506143003 | 10 | 213 | 20.9 | 29.0 | 0.00 | 0.00 | 0.00 | 92 | 1008.6 |
| 20260506142003 | 10 | 216 | 22.5 | 30.6 | 0.00 | 0.00 | 0.00 | 92 | 1008.7 |
| 20260506141002 | 10 | 210 | 25.7 | 33.8 | 0.00 | 0.00 | 0.00 | 92 | 1008.7 |
| 20260506140024 | 10 | 207 | 25.7 | 32.2 | 0.00 | 0.00 | 0.00 | 92 | 1008.8 |
| 20260506135003 | 9 | 212 | 22.5 | 30.6 | 0.00 | 0.00 | 0.00 | 92 | 1008.9 |